Погода в Кареево

Россия / Калужская область     54°40′01″N   36°51′41″E
темп.,
°C
ветер,
м/с
пор.,
м/с
влажн.,
%
обл.,
%
осадки,
мм/ч
давл.,
гПа
погр.,
м
17 апреля, сб
сб1700:00+10всв2596100 6.3 1018207
03:00+9в389576 6.6 1019202
06:00+8всв499798 0.2 1019335
09:00+9св4792100 0.4 1019505
12:00+12всв51083100 0.2 1018884
15:00+13в61277100 1.7 10181257
18:00+9ю2595100 7.4 1017236
21:00+8ююв2598100 25.8 1019318
18 апреля, вс
вс1800:00+7юв1395100 2.9 1019212
03:00+6всв1296100 5.1 102086
06:00+6в1297100 0.1 102048
09:00+8всв3588100 0.3 1020558
12:00+7всв4689100 0.2 1021547
15:00+7св4789100 0.9 1021654
18:00+6св499484 2.7 1022519
21:00+6всв4996100 3.9 1023528
19 апреля, пн
пн1900:00+5всв4109478 1.5 1023498
03:00+5всв4994100 1.5 1023513
06:00+5в41095100 0.0 1023570
09:00+6всв51094100 0.0 1023705
12:00+6всв5991100 0.1 1023935
15:00+5всв51094100 0.1 1023725
18:00+5в51094100 0.0 1023758
21:00+5в61191100 0.1 1022886
20 апреля, вт
вт2000:00+5в61386100 0.1 1021705
03:00+5в61382100 0.1 1020669
06:00+4в6138867 0.0 1019645
09:00+4в71488100 0.0 1018697
12:00+5всв71688100 0.1 1014850
15:00+5всв91891100 2.0 1010924
18:00+6в102292100 8.3 10051377
21:00+6вюв92092100 12.9 10031171
21 апреля, ср
ср2100:00+7вюв71595100 1.9 1001894
03:00+9юв6139199 4.7 999934
06:00+7юв71390100 1.4 999911
09:00+7ю71292100 2.6 10001169
12:00+5ююз61388100 0.3 10061190
15:00+9ююз61369100 0.4 10071662
18:00+8ю6117499 0.1 10101101
21:00+6ю5138320 0.1 1012673